This demonstration page uses our WeatherBlox Daily Observations layout. Learn more.

Left ArrowRight Arrow

30.21309, -93.2044

Hourly Observations for August 1, 2019

Temp ( °F °C ) Dew Point ( °F °C ) Humidity (%) Winds ( mph kmh ) Pressure ( in mb ) Visibility ( mi km ) Precip ( " mm )
12:15 am 00:15 Clear 78 25.4 76 24.6 95 95 SE 5 7 30.02 1017 10 16 0.00 0.00
12:35 am 00:35 Clear 77 25 76 24.4 96 96 ESE 6 9 30.02 1017 10 16 0.00 0.00
12:55 am 00:55 Clear 77 25.1 76 24.4 96 96 ESE 7 11 30.01 1016 10 16 0.00 0.00
1:15 am 01:15 Clear 77 24.8 76 24.3 97 97 Calm 30.01 1016 10 16 0.00 0.00
1:35 am 01:35 Clear 77 24.8 76 24.5 98 98 SE 3 6 30.01 1016 10 16 0.00 0.00
1:55 am 01:55 Clear 76 24.7 76 24.3 98 98 SE 3 6 30.01 1016 10 16 0.00 0.00
2:15 am 02:15 Clear 76 24.6 76 24.2 98 98 Calm 30.01 1016 10 16 0.00 0.00
2:35 am 02:35 Clear 76 24.3 75 23.9 98 98 Calm 30.01 1016 10 16 0.00 0.00
2:55 am 02:55 Clear 76 24.7 76 24.3 98 98 Calm 30.01 1016 10 16 0.00 0.00
3:15 am 03:15 Clear 77 24.8 76 24.2 96 96 Calm 30.01 1016 10 16 0.00 0.00
3:35 am 03:35 Clear 76 24.4 75 24 98 98 Calm 30.02 1017 10 16 0.00 0.00
3:55 am 03:55 Clear 76 24.4 75 23.9 97 97 Calm 30.02 1017 10 16 0.00 0.00
4:15 am 04:15 Clear 76 24.3 75 23.9 98 98 Calm 30.02 1017 10 16 0.00 0.00
4:35 am 04:35 Clear 75 23.8 74 23.3 97 97 E 5 7 30.02 1017 10 16 0.00 0.00
4:55 am 04:55 Clear 75 23.7 74 23.4 98 98 E 3 6 30.02 1017 10 16 0.00 0.00
5:15 am 05:15 Clear 75 24 74 23.6 98 98 Calm 30.02 1017 10 16 0.00 0.00
5:35 am 05:35 Clear 75 24 74 23.6 98 98 Calm 30.02 1017 10 16 0.00 0.00
6:00 am 06:00 Mostly Clear 75 24 73 23 94 94 Calm 30.02 1017 10 16 0.00 0.00
6:50 am 06:50 Partly Cloudy 75 24 75 24 100 100 Calm 30.04 1017 10 16 0.00 0.00
7:50 am 07:50 Mostly Sunny 77 25 75 24 94 94 Calm 30.06 1018 10 16 0.00 0.00
8:55 am 08:55 Mostly Sunny 82 28 77 25 84 84 Calm 30.07 1018 10 16 0.00 0.00
12:45 pm 12:45 Mostly Cloudy 86 30 73 23 66 66 NNE 6 9 30.07 1018 10 16 0.00 0.00
1:45 pm 13:45 Mostly Cloudy 88 31 73 23 62 62 ESE 5 7 30.05 1018 10 16 0.00 0.00
3:45 pm 15:45 Mostly Cloudy 90 32 72 22 55 55 Calm 30.01 1016 10 16 0.00 0.00
4:50 pm 16:50 Partly Cloudy 90 32 73 23 59 59 SE 6 9 29.99 1016 10 16 0.00 0.00
5:50 pm 17:50 Partly Cloudy 88 31 75 24 66 66 S 6 9 29.98 1015 10 16 0.00 0.00
6:45 pm 18:45 Partly Cloudy 86 30 77 25 75 75 S 7 11 29.97 1015 10 16 0.00 0.00
7:45 pm 19:45 Partly Cloudy 84 29 75 24 74 74 SW 6 9 29.96 1015 10 16 0.00 0.00
8:50 pm 20:50 Mostly Clear 84 29 75 24 74 74 SW 6 9 29.97 1015 10 16 0.00 0.00
9:55 pm 21:55 Mostly Clear 81 27 75 24 84 84 SSE 6 9 30.00 1016 10 16 0.00 0.00
10:15 pm 22:15 Clear 80 26.4 76 24.7 90 90 E 7 11 30.01 1016 10 16 0.00 0.00
10:35 pm 22:35 Clear 78 25.7 76 24.6 94 94 ESE 9 15 30.01 1016 10 16 0.00 0.00
10:55 pm 22:55 Partly Cloudy with Mist and Fog 78 25.6 76 24.6 94 94 E 7 11 30.01 1016 5 8 0.00 0.00
11:15 pm 23:15 Clear 81 27 76 24.5 86 86 Calm 30.01 1016 10 16 0.00 0.00
11:35 pm 23:35 Clear 79 26 76 24.5 91 91 Calm 30.01 1016 10 16 0.00 0.00
11:55 pm 23:55 Clear 79 26.2 76 24.2 89 89 N 8 13 30.01 1016 10 16 0.00 0.00

Powered by AerisWeather